sat.trackr.live / text

‹ back to catalog

STARLINK-3225

NORAD 49737 · 2021-115P

PAYLOAD ACTIVE UNKNOWN

§ Identity

Operator
Country
US
Launch date
2021-12-02
Launch site
AFETR
Launch vehicle
Mass (kg)
RCS (m²)

Purposes: comms

External: N2YO · Heavens-Above · Gunter

§ Orbital elements

Epoch: 2026-09-19T19:02:19.858560Z

Period
94.15 min
Inclination
53.1624°
Eccentricity
0.0001171
Mean motion
15.29479833 rev/d
Perigee alt
476.6 km
Apogee alt
478.2 km
Semi-major
6,855.5 km
B*
1.9597e-4
RAAN
352.6188°
Arg perigee
74.6361°
Mean anomaly
285.4769°
Rev number
26,490

§ Raw data

STARLINK-32251 49737U 21115P   26262.79328540  .00005324  00000+0  19597-3 0  99932 49737  53.1624 352.6188 0001171  74.6361 285.4769 15.29479833264906

JSON: /api/v1/satellites/49737 · /tle

For live sub-satellite position, see the globe view (requires WebGL).

§ Visibility from observer

Set your observer location to see the next 7 days of passes ≥ 10°. The values pass through the URL so the page stays shareable.

No JS? Fill the form by hand. The geolocation button needs JavaScript.